Palestine, IL

9:50 AM CST on December 08, 2016 (GMT -0600)
Robinson Municipal

Weather History for KRSV - December, 2013

Change the Weather History Date:

Sunday, December 15, 2013

  Actual Average (KLWV) Record (KLWV)
Temperature  
Mean Temperature 28 °F -  
Max Temperature 31 °F 39 °F 62 °F (2011)
Min Temperature 25 °F 24 °F 6 °F (2010)
Degree Days  
Heating Degree Days 37    
Moisture  
Dew Point 24 °F    
Average Humidity 85    
Maximum Humidity 92    
Minimum Humidity 77    
Precipitation  
Precipitation 0.01 in - - ()
Sea Level Pressure  
Sea Level Pressure 30.13 in    
Wind  
Wind Speed 11 mph (West)    
Max Wind Speed 17 mph    
Max Gust Speed 24 mph    
Visibility 9 miles    
Events Snow    
Averages and records for this station are not official NWS values.
T = Trace of Precipitation, MM = Missing Value Source: NWS Daily Summary

Daily Weather History Graph

Daily Weather History Graph

Search for Another Location

Airport or City:

Trip Planner

Search our weather history database for the weather conditions in past years. The results will help you decide how hot, cold, wet, or windy it might be!

Date:

Astronomy

Dec. 15, 2013 Rise Set
Actual Time 7:02 AM CST 4:29 PM CST
Civil Twilight 6:32 AM CST 4:59 PM CST
Nautical Twilight 5:58 AM CST 5:32 PM CST
Astronomical Twilight 5:26 AM CST 6:05 PM CST
Moon 3:32 PM CST (12/15) 5:19 AM CST (12/15)
Length of Visible Light 10h 26m
Length of Day
9h 26m
Waxing Gibbous, 98% of the Moon is Illuminated
Dec 15
Waxing Gibbous
Dec 17
Full
Dec 25
Last Quarter
Jan 1
New
Jan 7
First Quarter

Hourly Weather History & Observations

Time (CST) Temp. Windchill Dew Point Humidity Pressure Visibility Wind Dir Wind Speed Gust Speed Precip Events Conditions
12:15 AM 30.2 °F 19.8 °F 26.6 °F 86% 30.06 in 10.0 mi NW 13.8 mph 20.7 mph N/A   Overcast
12:35 AM 29.8 °F 19.8 °F 26.2 °F 86% 30.07 in 10.0 mi NW 12.7 mph 20.7 mph N/A   Overcast
12:55 AM 29.3 °F 19.1 °F 25.7 °F 86% 30.07 in 10.0 mi NNW 12.7 mph - N/A   Overcast
1:15 AM 28.8 °F 18.4 °F 25.5 °F 88% 30.08 in 10.0 mi NW 12.7 mph - N/A   Overcast
1:35 AM 28.8 °F 17.5 °F 25.2 °F 86% 30.09 in 10.0 mi NW 15.0 mph 19.6 mph N/A   Overcast
1:55 AM 28.8 °F 18.4 °F 25.3 °F 87% 30.09 in 10.0 mi NW 12.7 mph - N/A   Overcast
2:15 AM 28.8 °F 18.4 °F 25.2 °F 86% 30.09 in 10.0 mi NW 12.7 mph - N/A   Overcast
2:35 AM 28.6 °F 20.7 °F 25.3 °F 88% 30.09 in 10.0 mi NW 8.1 mph - N/A   Overcast
2:55 AM 28.4 °F 19.1 °F 25.3 °F 88% 30.10 in 10.0 mi NNW 10.4 mph - N/A   Overcast
3:15 AM 28.2 °F 20.2 °F 25.0 °F 88% 30.09 in 10.0 mi NW 8.1 mph - N/A   Overcast
3:35 AM 28.4 °F 21.2 °F 25.3 °F 88% 30.09 in 10.0 mi WNW 6.9 mph - N/A   Overcast
3:55 AM 28.6 °F 17.7 °F 24.8 °F 86% 30.10 in 10.0 mi WNW 13.8 mph 18.4 mph N/A   Overcast
4:15 AM 28.4 °F 18.5 °F 24.8 °F 86% 30.10 in 10.0 mi WNW 11.5 mph - N/A   Overcast
4:35 AM 28.4 °F 18.5 °F 24.8 °F 86% 30.11 in 10.0 mi WNW 11.5 mph 17.3 mph N/A   Overcast
4:55 AM 28.4 °F 18.0 °F 24.8 °F 86% 30.11 in 10.0 mi NW 12.7 mph - N/A   Overcast
5:15 AM 28.2 °F 18.3 °F 24.3 °F 85% 30.11 in 10.0 mi WNW 11.5 mph - N/A   Overcast
5:35 AM 27.5 °F 15.4 °F 23.7 °F 86% 30.12 in 10.0 mi WNW 16.1 mph - N/A   Overcast
5:55 AM 27.1 °F 14.9 °F 23.9 °F 88% 30.13 in 7.0 mi West 16.1 mph 19.6 mph N/A   Overcast
6:15 AM 27.0 °F 14.7 °F 23.0 °F 85% 30.14 in 10.0 mi WNW 16.1 mph 21.9 mph N/A   Overcast
6:35 AM 26.2 °F 14.2 °F 21.9 °F 84% 30.14 in 10.0 mi WNW 15.0 mph - N/A   Overcast
6:55 AM 25.7 °F 13.1 °F 21.2 °F 83% 30.16 in 10.0 mi WNW 16.1 mph 24.2 mph N/A   Overcast
7:15 AM 25.3 °F 14.7 °F 21.2 °F 84% 30.15 in 10.0 mi WNW 11.5 mph - N/A   Overcast
7:35 AM 25.7 °F 16.4 °F 21.7 °F 85% 30.15 in 10.0 mi West 9.2 mph - N/A   Overcast
7:55 AM 26.1 °F 15.6 °F 22.1 °F 85% 30.16 in 10.0 mi WNW 11.5 mph - N/A   Overcast
8:15 AM 26.2 °F 16.4 °F 22.5 °F 86% 30.16 in 10.0 mi West 10.4 mph - N/A   Overcast
8:35 AM 26.4 °F 17.3 °F 22.8 °F 86% 30.17 in 7.0 mi West 9.2 mph - N/A   Overcast
8:55 AM 26.6 °F 13.8 °F 21.4 °F 81% 30.18 in 7.0 mi West 17.3 mph 21.9 mph N/A   Overcast
9:15 AM 25.7 °F 12.7 °F 19.8 °F 78% 30.19 in 10.0 mi WNW 17.3 mph - N/A   Overcast
9:35 AM 25.3 °F 13.6 °F 20.1 °F 81% 30.19 in 10.0 mi WNW 13.8 mph - N/A   Overcast
9:55 AM 25.5 °F 15.5 °F 20.3 °F 81% 30.18 in 10.0 mi West 10.4 mph 20.7 mph N/A   Overcast
10:15 AM 25.3 °F 13.6 °F 20.1 °F 81% 30.18 in 10.0 mi West 13.8 mph - N/A   Mostly Cloudy
10:35 AM 25.2 °F 13.3 °F 19.9 °F 81% 30.18 in 10.0 mi West 13.8 mph - N/A   Scattered Clouds
10:55 AM 25.7 °F 14.6 °F 20.5 °F 81% 30.17 in 10.0 mi West 12.7 mph 17.3 mph N/A   Mostly Cloudy
11:15 AM 26.2 °F 14.2 °F 21.2 °F 81% 30.16 in 7.0 mi West 15.0 mph 20.7 mph N/A   Overcast
11:35 AM 27.1 °F 17.5 °F 22.3 °F 82% 30.16 in 7.0 mi West 10.4 mph - N/A   Overcast
11:55 AM 27.5 °F 17.4 °F 22.6 °F 82% 30.16 in 7.0 mi West 11.5 mph - N/A   Overcast
12:15 PM 28.0 °F 19.3 °F 23.2 °F 82% 30.15 in 7.0 mi WSW 9.2 mph 16.1 mph N/A   Overcast
12:35 PM 28.0 °F 18.6 °F 23.2 °F 82% 30.14 in 7.0 mi WSW 10.4 mph 16.1 mph N/A   Overcast
12:55 PM 28.0 °F 17.5 °F 23.0 °F 81% 30.14 in 7.0 mi WSW 12.7 mph 17.3 mph N/A   Overcast
1:15 PM 28.2 °F 18.3 °F 23.2 °F 81% 30.15 in 7.0 mi West 11.5 mph - N/A   Overcast
1:35 PM 28.2 °F 18.3 °F 22.8 °F 80% 30.14 in 7.0 mi West 11.5 mph - N/A   Overcast
1:55 PM 28.4 °F 18.5 °F 22.6 °F 79% 30.14 in 10.0 mi WSW 11.5 mph 17.3 mph N/A   Overcast
2:15 PM 28.4 °F 19.7 °F 23.0 °F 80% 30.13 in 10.0 mi WSW 9.2 mph - N/A   Overcast
2:35 PM 28.8 °F 20.2 °F 22.8 °F 78% 30.12 in 10.0 mi WSW 9.2 mph - N/A   Overcast
2:55 PM 29.3 °F 20.8 °F 23.0 °F 77% 30.13 in 10.0 mi WSW 9.2 mph - N/A   Overcast
3:15 PM 29.3 °F 20.8 °F 23.2 °F 78% 30.14 in 10.0 mi WSW 9.2 mph - N/A   Mostly Cloudy
3:35 PM 29.3 °F 21.5 °F 23.2 °F 78% 30.14 in 10.0 mi West 8.1 mph - N/A   Scattered Clouds
3:55 PM 29.1 °F 19.4 °F 23.4 °F 79% 30.15 in 10.0 mi WSW 11.5 mph - N/A   Scattered Clouds
4:15 PM 28.8 °F 21.7 °F 23.0 °F 79% 30.14 in 7.0 mi WSW 6.9 mph - N/A   Scattered Clouds
4:35 PM 28.8 °F 22.6 °F 23.9 °F 82% 30.13 in 10.0 mi WSW 5.8 mph - N/A   Mostly Cloudy
4:55 PM 28.8 °F 23.7 °F 24.4 °F 84% 30.14 in 10.0 mi SW 4.6 mph - N/A   Mostly Cloudy
5:15 PM 29.1 °F 24.1 °F 24.8 °F 84% 30.14 in 10.0 mi SW 4.6 mph - N/A   Overcast
5:35 PM 29.3 °F 25.6 °F 25.0 °F 84% 30.14 in 7.0 mi SW 3.5 mph - N/A   Overcast
5:55 PM 29.3 °F 24.3 °F 25.5 °F 86% 30.14 in 10.0 mi SW 4.6 mph - N/A   Overcast
6:15 PM 29.7 °F 26.1 °F 25.3 °F 84% 30.15 in 10.0 mi SW 3.5 mph - N/A   Overcast
6:35 PM 29.7 °F 26.1 °F 25.7 °F 85% 30.15 in 7.0 mi SW 3.5 mph - N/A   Overcast
6:55 PM 30.2 °F 24.3 °F 26.6 °F 86% 30.15 in 10.0 mi SW 5.8 mph - N/A   Overcast
7:15 PM 30.4 °F 23.6 °F 26.6 °F 86% 30.15 in 10.0 mi SW 6.9 mph - N/A   Overcast
7:35 PM 30.6 °F 24.7 °F 27.0 °F 86% 30.15 in 10.0 mi SSW 5.8 mph - N/A   Overcast
7:55 PM 30.6 °F 24.7 °F 27.1 °F 87% 30.14 in 10.0 mi SSW 5.8 mph - N/A   Overcast
8:15 PM 30.2 °F 23.4 °F 27.1 °F 88% 30.14 in 10.0 mi SSW 6.9 mph - N/A   Overcast
8:35 PM 30.6 °F 24.7 °F 27.1 °F 87% 30.14 in 10.0 mi SSW 5.8 mph - N/A   Overcast
8:55 PM 30.2 °F 25.4 °F 27.3 °F 89% 30.14 in 10.0 mi South 4.6 mph - N/A   Overcast
9:15 PM 30.2 °F 25.4 °F 27.5 °F 90% 30.14 in 10.0 mi SSW 4.6 mph - N/A   Overcast
9:35 PM 30.6 °F 25.8 °F 27.5 °F 88% 30.14 in 10.0 mi South 4.6 mph - N/A   Overcast
9:55 PM 30.7 °F 23.3 °F 27.5 °F 88% 30.14 in 10.0 mi SSW 8.1 mph - N/A   Overcast
10:15 PM 30.9 °F 23.5 °F 28.0 °F 89% 30.13 in 10.0 mi SW 8.1 mph - N/A   Overcast
10:35 PM 30.9 °F 22.8 °F 28.4 °F 90% 30.13 in 10.0 mi SSW 9.2 mph - N/A   Overcast
10:55 PM 30.9 °F 23.5 °F 28.4 °F 90% 30.13 in 7.0 mi SSW 8.1 mph - N/A   Overcast
11:15 PM 31.1 °F 25.4 °F 28.9 °F 92% 30.13 in 7.0 mi SSW 5.8 mph - N/A   Overcast
11:35 PM 31.1 °F 26.4 °F 29.1 °F 92% 30.13 in 7.0 mi SSW 4.6 mph - N/A Snow Light Snow
11:55 PM 31.5 °F 25.8 °F 29.3 °F 92% 30.12 in 7.0 mi South 5.8 mph - N/A   Overcast